Belize, Belize

4:35 PM CST on November 22, 2017 (GMT -0600)
Philip S W Goldson International

Weather History for MZBZ - March, 2014

Change the Weather History Date:

Tuesday, March 11, 2014

  Actual Average Record
Temperature  
Mean Temperature 80 °F -  
Max Temperature 86 °F 86 °F 87 °F (2003)
Min Temperature 75 °F 72 °F 66 °F (1998)
Cooling Degree Days 16    
Growing Degree Days 30 (Base 50)    
Moisture  
Dew Point 74 °F    
Average Humidity 75    
Maximum Humidity 89    
Minimum Humidity 61    
Precipitation  
Precipitation 0.00 in 0.07 in - ()
Sea Level Pressure  
Sea Level Pressure 29.85 in    
Wind  
Wind Speed 5 mph ()    
Max Wind Speed 9 mph    
Max Gust Speed -    
Visibility 8.6 miles    
Events      
Averages and records for this station are not official NWS values.
T = Trace of Precipitation, MM = Missing Value Source: Averaged Metar Reports

Daily Weather History Graph

Daily Weather History Graph

Search for Another Location

Airport or City:

Trip Planner

Search our weather history database for the weather conditions in past years. The results will help you decide how hot, cold, wet, or windy it might be!

Date:

Astronomy

Mar. 11, 2014 Rise Set
Actual Time 6:04 AM CST 6:02 PM CST
Civil Twilight 5:42 AM CST 6:23 PM CST
Nautical Twilight 5:17 AM CST 6:49 PM CST
Astronomical Twilight 4:52 AM CST 7:14 PM CST
Moon 2:07 PM CST (3/11) 2:27 AM CST (3/11)
Length of Visible Light 12h 41m
Length of Day
11h 57m
Waxing Gibbous, 78% of the Moon is Illuminated
Mar 11
Waxing Gibbous
Mar 16
Full
Mar 23
Last Quarter
Mar 30
New
Apr 7
First Quarter

Hourly Weather History & Observations

Time (CST) Temp. Heat Index Dew Point Humidity Pressure Visibility Wind Dir Wind Speed Gust Speed Precip Events Conditions
12:00 AM 76 °F - 73 °F 87% 29.95 in 12 mi ESE 5.8 mph - -   Partly Cloudy
3:00 AM 76 °F - 73 °F 88% 29.88 in 12 mi Calm Calm - -   Scattered Clouds
5:00 AM 77.0 °F - 71.6 °F 83% 29.87 in 6.2 mi ESE 5.8 mph - N/A   Mostly Cloudy
6:00 AM 76 °F - 73 °F 86% 29.89 in 12 mi East 4.6 mph - -   Partly Cloudy
6:00 AM 77.0 °F - 73.4 °F 89% 29.89 in 6.2 mi East 4.6 mph - N/A   Scattered Clouds
7:00 AM 78.8 °F - 73.4 °F 83% 29.90 in 6.2 mi ESE 5.8 mph - N/A   Scattered Clouds
8:00 AM 80.6 °F 85.4 °F 73.4 °F 79% 29.92 in 6.2 mi ESE 9.2 mph - N/A   Mostly Cloudy
9:00 AM 83 °F - 74 °F 68% 29.94 in 12 mi SE 8.1 mph - -   Mostly Cloudy
9:00 AM 84.2 °F 90.9 °F 73.4 °F 70% 29.93 in 6.2 mi SE 8.1 mph - N/A   Mostly Cloudy
10:00 AM 84.2 °F 90.9 °F 73.4 °F 70% 29.92 in 6.2 mi SE 8.1 mph - N/A   Scattered Clouds
11:00 AM 86.0 °F 95.1 °F 75.2 °F 70% 29.90 in 6.2 mi SSE 6.9 mph - N/A   Mostly Cloudy
12:00 PM 85 °F - 75 °F 65% 29.87 in 14 mi SSE 6.9 mph - -   Mostly Cloudy
12:00 PM 86.0 °F 95.1 °F 75.2 °F 70% 29.86 in 6.2 mi SSE 6.9 mph - N/A   Mostly Cloudy
1:00 PM 84.2 °F 92.3 °F 75.2 °F 74% 29.83 in 6.2 mi SE 8.1 mph - N/A   Mostly Cloudy
2:00 PM 86.0 °F 93.4 °F 73.4 °F 66% 29.80 in 6.2 mi SE 8.1 mph - N/A   Scattered Clouds
3:00 PM 85 °F - 73 °F 61% 29.78 in 14 mi SE 8.1 mph - -   Partly Cloudy
3:00 PM 86.0 °F 93.4 °F 73.4 °F 66% 29.77 in 6.2 mi SE 8.1 mph - N/A   Scattered Clouds
4:00 PM 84.2 °F 90.9 °F 73.4 °F 70% 29.77 in 6.2 mi ESE 8.1 mph - N/A   Scattered Clouds
5:00 PM 84.2 °F 92.3 °F 75.2 °F 74% 29.77 in 6.2 mi ESE 5.8 mph - N/A   Partly Cloudy
6:00 PM 82 °F - 74 °F 70% 29.79 in 14 mi East 5.8 mph - -   Scattered Clouds
6:00 PM 82.4 °F 88.2 °F 73.4 °F 74% 29.78 in 6.2 mi East 5.8 mph - N/A   Partly Cloudy
7:00 PM 80.6 °F 86.2 °F 75.2 °F 84% 29.80 in 6.2 mi East 5.8 mph - N/A   Partly Cloudy
9:00 PM 78 °F - 75 °F 86% 29.85 in 14 mi ESE 4.6 mph - -   Scattered Clouds